Regional Weather Roundup
Issued by NWS

Home | Current Version | Previous Version | Text Only | Print | Product List | Glossary Off
Versions: 1 2 3 4 5 6 7 8 9 10 11 12 13 14 15 16 17 18 19 20 21 22 23 24 25 26 27 28 29 30 31 32 33 34 35 36 37 38 39 40 41 42 43 44 45 46 47 48 49 50

000
ASUS43 KFSD 270102
RWRSD

WEATHER ROUNDUP FOR SOUTH DAKOTA
NATIONAL WEATHER SERVICE SIOUX FALLS SD
800 PM CDT WED JUL 26 2017

NOTE: "FAIR" INDICATES FEW OR NO CLOUDS BELOW 12,000 FEET WITH NO
SIGNIFICANT WEATHER AND/OR OBSTRUCTIONS TO VISIBILITY.


SDZ001>005-009-010-012>017-270200-
NORTHWEST AND NORTH CENTRAL SOUTH DAKOTA

CITY           SKY/WX    TMP DP  RH WIND       PRES   REMARKS
BUFFALO          N/A     86  51  29 S13       30.04S
FAITH            N/A     86  50  28 SE13      30.10S
MOBRIDGE       SUNNY     84  61  45 NE6       30.06F
$$

SDZ012>016-024>037-041>051-057-063-072>074-270200-
SOUTHWEST AND SOUTH CENTRAL SOUTH DAKOTA

CITY           SKY/WX    TMP DP  RH WIND       PRES   REMARKS
RAPID CTY ARPT CLOUDY    84  51  31 SE14      30.12F
PIERRE         SUNNY     86  53  32 NE10      30.06S
CUSTER         CLOUDY    73  47  39 E15G22    30.28S
ELLSWORTH AFB  MOSUNNY   84  51  31 SE14      30.12F
PHILIP         SUNNY     86  51  29 E12G18    30.08S
PINE RIDGE     MOSUNNY   80  54  40 SE9       30.14F
SPEARFISH      FAIR      82  48  30 SE10      30.16S
WINNER         FAIR      85  53  33 E13       30.09S
$$

SDZ004>011-016>023-039-040-270200-
NORTHEAST SOUTH DAKOTA

CITY           SKY/WX    TMP DP  RH WIND       PRES   REMARKS
ABERDEEN       SUNNY     80  61  52 NE6       30.07S
WATERTOWN      CLEAR     76  60  57 N7        30.07R
BROOKINGS      PTCLDY    76  62  62 NE7       30.07S
SISSETON         N/A     80  64  58 N6        30.05S
$$

SDZ017-020-022-023-036>040-048>070-270200-
SOUTHEAST SOUTH DAKOTA

CITY           SKY/WX    TMP DP  RH WIND       PRES   REMARKS
SIOUX FALLS    PTCLDY    78  63  59 NE9       30.05S
HURON          CLEAR     80  61  52 NE7       30.06S
CHAMBERLAIN    SUNNY     83  59  43 E5        30.08S
MITCHELL       CLEAR     80  63  55 NE6       30.06S
YANKTON        CLEAR     80  65  59 N12       30.04R
$$

ABBREVIATIONS USED IN REMARKS
   TC - TEMPERATURE IN CELSIUS
  WCI - WIND CHILL INDEX
   HX - HEAT INDEX
  VSB - VISIBILITY




USA.gov is the U.S. government's official web portal to all federal, state and local government web resources and services.